Location: Dodgeville, WI 53533, USA
(43.0344°N, 90.0900°W)
Time: 00:58:11
(UTC-06:00)

N. Korean satellite - Pass Details

Date: 31 January 2021
Orbit: 451 x 502 km, 97.2° (Epoch: 04 March)

Event Time Altitude Azimuth Distance (km) Brightness Sun altitude
Rises 05:27:32 0° 12° (NNE) 2,486 10.3 -20.0°
Reaches altitude 10° 05:29:36 10° 13° (NNE) 1,602 9.3 -19.6°
Maximum altitude 05:33:01 85° 99° (E) 460 6.4 -19.0°
Drops below altitude 10° 05:36:25 10° 191° (S) 1,578 9.1 -18.4°
Sets 05:38:25 0° 192° (SSW) 2,445 10.1 -18.0°
